Location: Gorze? G�rny
(49.8500°N, 19.5000°E)
Time: 21:51:54
(UTC+00:00)

Cosmos 1674 Rocket - Pass Details

Date: 02 October 2021
Orbit: 601 x 631 km, 82.5° (Epoch: 27 October)

Event Time Altitude Azimuth Distance (km) Brightness Sun altitude
Rises 03:55:51 0° 136° (SE) 2,897 7.6 -8.5°
Reaches altitude 10° 03:59:10 10° 110° (ESE) 1,990 7.4 -8.0°
Maximum altitude 04:01:12 13° 82° (E) 1,791 7.5 -7.6°
Drops below altitude 10° 04:03:13 10° 54° (NE) 1,989 7.2 -7.3°
Sets 04:06:32 0° 28° (NNE) 2,894 7.4 -6.8°
